NOAA 16 DEB, 41216

Orbit data source: Space-Track

NOAA 16 DEB, 41216 is space debris in SSO originally from a launch on Thu, 21 Sep 2000 UTC launched from the Air Force Western Test Range (AFWTR). Debris objects in space refer to the collection of defunct objects orbiting the Earth. Examples of debris include non-operational satellites, rocket bodies, and fragments generated from explosions, collisions, or faulty payload assembly.

Loading next visibility...
Identifier
41216, 2000-055DV
Orbit
SSO
Country
Flag of USUS
Related business
Manufacturer
Unknown
Mission
Spacecraft
Bus & Motor
Unknown
Mass
Unknown
Launch date (UTC)
2000-09-21 (25 years ago)
Launch vehicle
Unknown
Launch site
Air Force Western Test Range (AFWTR)
Object type
Payload
Rocket body
Debris
Shape & HBR
Unknown shape, 0.1 m
Radar Cross Section
Small (<0.1 m²)

Expand to show TLE details & history
Last TLE update: 21 hours ago

TLE from 21 hours ago
0 NOAA 16 DEB
1 41216U 00055DV  25292.70718832  .00003487  00000-0  23421-2 0  9996
2 41216  98.9124 245.3113 0097823 131.1030 229.8632 13.99029994500749
Epoch: 2025-10-19T16:58Z
TLE epoch observation values (Epoch: 2025-10-19T16:58:21.070Z)
Latitude
-0.00009°
Longitude
-37.69647°
Altitude
946.325 km
Speed
7.355 km/s
True Right ascension
16h 21m 14s
True Declination
0° 00' 00"
Sunlit
Object was in daylight at epoch
Visualization orbit readout
Latitude
Unknown
Longitude
Unknown
Altitude
Unknown
Speed
Unknown
Apparent Right ascension
Unknown
Apparent Declination
Unknown
Sunlit
N/A
Visualization observer readout
Local Sidereal Time
08:29:10
Azimuth
Unknown
Elevation
Unknown
Doppler factor
Unknown
Orbital elements
Apogee altitude
965.494 km
Perigee altitude
823.21 km
Semi-major axis
7,272.489 km
Eccentricity
0.00978
Inclination
98.9124°
RAAN
245.3113°
Arg. of periapsis
131.103°
True anomaly
229.01295°
Mean anomaly
229.8632°
Eccentric anomaly
229.4374°
Mean motion
3.4996 °/min
Orbital period
102.87 mins
BSTAR
0.0023421
Loading maneuver chart data...
Computing Atmospheric mass density...
Loading historical data...
Loading historical data...
Loading historical data...
Loading historical data...
Loading historical data...
Loading historical data...
Loading historical data...

Documentation

Showing up to 5 results
|